GFSNW_250_spd_174.txt.gz
Wind_Speed
157 158 161 155 153 152 152 150 147 142 144 147 148 149 143 142 139 144 145 144 143 146 147 147 147 146 144 141 139 139 137 137 133 133 129 131 132 128 129 129 127 127 124 123
134 137 136 136 135 135 137 141 138 141 141 146 144 144 148 149 140 141 142 141 141 146 143 142 140 137 138 143 144 137 136 138 130 123 124 126 121 122 125 122 123 120 121 118
115 116 117 117 116 118 117 116 119 118 121 121 127 129 136 132 127 130 134 133 132 128 133 134 127 128 133 132 132 132 133 129 123 116 116 117 114 113 116 115 111 107 103 102
103 103 102 103 101 102 103 101 103 105 107 106 109 111 112 115 108 110 113 115 111 110 114 116 114 111 113 112 114 113 110 107 106 102 99 100 97 95 99 100 96 98 91 94
89 90 92 91 91 90 89 90 93 96 94 97 99 96 99 99 99 103 103 102 97 100 103 102 104 104 104 105 104 103 100 95 96 96 93 91 91 87 86 90 90 93 89 88
79 79 80 80 81 81 81 82 82 83 84 89 88 86 86 86 89 92 93 92 91 90 89 92 92 91 92 91 90 91 91 90 86 85 87 86 77 72 81 82 83 89 93 91
70 71 71 71 72 73 73 74 73 71 74 76 76 77 77 76 78 81 81 81 78 78 80 82 82 81 82 79 78 79 79 80 80 79 81 72 66 71 72 79 82 86 86 82
63 63 64 64 64 64 65 65 64 62 64 65 68 67 66 67 71 70 71 71 70 72 72 70 72 69 66 67 67 70 70 73 74 72 73 66 52 63 70 77 78 79 81 78
57 57 58 58 57 56 57 59 56 55 54 60 59 58 58 59 59 62 59 62 63 62 63 62 61 60 56 56 57 63 68 66 64 65 67 58 52 65 67 73 69 68 73 72
51 51 51 52 51 50 48 50 49 48 49 57 52 53 53 53 56 56 55 56 58 61 62 57 55 54 52 54 59 67 66 59 53 57 60 54 53 56 61 63 54 59 61 62
45 45 45 44 43 43 43 46 46 45 45 52 47 48 48 49 52 51 48 51 52 54 53 52 53 52 52 55 59 63 55 52 53 54 57 51 51 49 54 58 55 57 55 54
39 39 39 39 40 39 41 41 38 36 38 42 41 41 43 46 43 47 48 49 46 47 49 48 48 46 43 43 45 52 53 48 48 47 50 50 46 48 56 60 57 56 55 52
34 34 34 34 35 36 36 35 34 34 35 35 39 40 42 42 43 45 46 44 44 44 41 42 40 39 40 39 45 54 51 47 43 42 44 46 46 50 49 46 51 56 56 51
29 29 29 29 29 31 30 30 28 29 30 32 37 35 37 35 39 39 38 38 36 34 31 29 31 37 41 44 48 49 43 39 39 38 42 41 42 40 36 40 49 49 51 48
23 23 23 23 23 22 21 21 22 22 23 24 27 27 28 29 31 33 32 31 30 30 29 29 33 36 37 37 38 43 36 32 24 35 33 27 29 32 30 38 41 42 40 36
17 18 18 18 18 18 18 17 18 19 20 20 21 21 23 25 26 26 26 25 24 23 25 27 27 31 24 29 36 37 28 21 21 35 28 28 29 29 34 34 35 33 29 26
14 13 12 12 13 13 14 14 15 16 18 20 20 23 24 25 24 21 20 22 21 21 22 23 23 24 28 34 32 21 19 24 29 28 23 28 26 29 26 24 23 24 26 22
10 10 9 9 10 10 10 11 13 14 14 15 15 14 15 15 16 16 18 20 20 18 18 19 22 24 22 23 27 24 20 22 25 24 25 22 21 19 17 19 25 23 15 15
7 8 8 10 10 10 9 9 9 11 11 11 12 12 12 13 15 17 18 17 16 16 15 14 15 12 15 21 19 18 16 20 23 21 16 19 17 15 17 20 19 17 20 24
5 7 7 8 8 8 8 8 8 8 9 9 9 8 10 11 12 12 12 12 8 6 12 17 17 13 13 17 16 16 17 16 16 18 19 18 17 16 20 19 20 22 20 18
7 7 7 6 5 5 5 5 7 8 9 9 9 8 9 10 10 9 6 7 9 13 16 16 17 18 17 17 17 20 23 22 19 19 18 19 22 19 19 20 19 20 20 20
5 4 4 4 2 2 2 1 0 1 2 3 5 6 6 6 8 7 7 10 13 16 17 17 17 16 18 19 20 18 18 16 17 18 21 23 22 21 20 19 21 21 22 24
3 4 4 3 4 6 7 7 5 3 1 2 3 4 5 6 8 9 12 14 15 14 13 11 12 12 14 18 18 19 20 19 19 21 22 22 22 22 24 23 25 27 26 24
5 5 5 6 5 6 6 7 6 4 1 1 3 4 4 4 8 9 13 10 7 6 13 14 13 14 16 18 19 19 19 17 17 16 16 17 20 22 23 25 25 23 21 17
9 7 6 5 4 5 5 6 6 5 3 4 4 5 6 6 6 7 8 6 4 5 8 9 10 11 14 17 17 17 19 21 20 18 21 23 26 27 27 25 22 17 13 10
11 9 9 10 10 10 10 8 6 4 2 4 7 8 10 11 11 12 13 13 13 11 10 12 14 15 15 18 18 19 25 27 26 26 27 26 25 24 22 18 14 10 7 4
16 16 15 13 14 14 13 11 9 5 5 2 5 7 6 8 10 11 14 15 15 15 15 17 20 23 23 25 26 27 28 28 27 26 24 22 20 18 17 13 9 6 5 6

GFSNW_250_spd_177.txt.gz
Wind_Speed
150 152 155 157 155 157 157 158 161 149 150 159 155 154 148 153 148 148 144 141 140 145 145 143 141 138 139 138 140 142 140 140 134 131 133 136 138 140 141 138 141 137 135 135
145 146 147 152 151 148 142 145 142 138 141 142 141 142 137 136 135 142 146 142 142 141 144 146 142 142 139 140 139 139 140 142 141 137 138 141 140 137 134 138 134 130 130 129
142 134 134 132 129 126 124 125 124 122 120 121 120 121 121 120 116 121 123 124 125 124 124 130 128 138 138 139 139 137 133 138 136 133 134 134 134 135 131 128 128 126 124 123
132 128 122 119 116 113 109 108 107 104 103 105 105 107 104 105 107 110 109 109 107 108 111 114 112 113 117 118 119 119 121 122 125 122 117 117 114 112 111 110 108 109 106 105
112 109 107 103 98 97 95 93 93 93 92 93 95 95 93 94 94 97 99 99 94 98 99 101 101 101 100 101 103 103 105 106 107 106 106 104 100 98 97 95 94 96 93 88
97 95 92 90 88 86 86 84 83 80 81 84 86 86 87 84 84 86 86 91 92 92 88 94 90 92 91 90 92 95 97 98 96 96 95 95 89 85 87 87 90 91 88 79
85 83 81 79 78 76 76 75 73 72 73 73 77 77 79 78 78 73 77 82 83 83 88 86 80 80 79 80 81 85 88 89 88 86 86 86 78 79 79 77 82 80 78 76
73 72 71 70 69 68 68 67 66 64 67 67 69 68 68 69 68 66 68 72 75 81 79 76 75 71 70 71 75 74 76 79 78 79 78 75 71 73 72 74 68 73 74 73
64 63 63 62 61 60 59 60 58 57 58 63 61 58 59 60 59 59 60 67 67 68 68 67 68 65 64 61 63 64 64 66 69 69 71 70 62 67 68 67 61 69 69 66
57 56 55 54 53 52 53 54 52 51 52 59 53 53 52 54 54 54 54 57 59 59 59 59 60 56 56 54 54 57 54 55 59 65 66 61 59 57 61 64 55 60 59 59
49 49 49 48 47 46 46 49 47 47 46 52 47 47 49 49 50 52 53 53 55 55 54 56 55 54 52 49 49 52 52 56 60 64 61 58 51 54 60 61 57 53 53 54
42 42 41 42 42 41 41 43 41 41 40 46 44 47 49 49 48 49 50 49 50 50 51 50 51 50 46 45 47 52 50 51 54 54 56 53 48 56 56 60 59 55 52 55
36 37 37 37 36 35 36 37 36 34 35 42 43 44 43 45 43 43 43 44 45 46 45 45 45 44 43 43 46 46 43 46 45 50 53 48 46 48 52 54 56 55 54 56
31 31 32 31 31 31 32 32 30 32 33 36 37 37 36 38 37 38 40 40 38 39 40 40 39 38 36 39 43 43 46 46 45 43 43 34 39 44 46 48 49 48 49 51
27 27 28 28 27 27 28 28 28 27 29 31 33 31 29 31 30 32 31 30 30 30 32 33 34 37 38 39 38 37 39 35 29 27 30 26 33 32 37 39 41 44 43 44
24 24 23 23 23 23 24 24 24 25 26 27 27 27 27 29 29 30 28 27 30 29 29 30 32 34 30 31 33 38 34 26 19 21 26 25 32 29 34 32 39 38 34 32
19 18 18 18 17 18 18 17 17 17 19 20 21 22 23 24 24 24 23 23 23 24 25 26 26 26 21 28 30 28 20 24 25 28 27 29 31 28 29 32 33 28 27 27
13 13 13 13 14 14 14 13 13 13 13 14 14 14 15 15 17 18 19 20 20 20 21 21 21 21 22 26 28 24 20 19 22 25 27 25 21 23 23 22 24 24 24 25
9 8 7 8 9 9 10 10 10 10 10 11 12 13 13 14 14 14 14 13 13 15 18 22 24 23 21 19 19 20 20 20 21 22 20 19 18 17 19 23 25 22 19 19
9 8 7 6 7 7 8 9 10 10 9 9 8 9 10 11 10 10 9 11 14 17 17 16 15 16 18 17 16 16 18 19 20 19 20 18 16 18 21 22 20 18 22 23
5 5 4 5 5 5 5 5 5 4 3 5 6 7 7 6 5 5 8 14 15 15 16 16 15 13 14 14 13 14 14 17 17 16 16 16 20 22 23 20 21 22 20 17
1 1 1 1 0 0 1 2 2 3 3 1 3 5 6 4 3 8 11 12 11 11 10 9 10 11 13 13 13 12 11 12 12 13 13 16 20 22 22 21 19 18 18 20
4 5 5 4 3 4 5 7 6 5 6 6 4 4 5 6 7 10 10 7 4 4 6 8 8 9 10 10 9 9 11 11 13 14 15 18 20 22 19 19 20 21 24 27
5 6 7 6 6 6 6 5 5 7 7 7 7 5 5 4 6 4 6 3 1 1 2 6 5 5 7 8 8 9 11 13 14 12 11 13 15 19 19 20 21 24 26 26
7 7 6 5 5 6 4 6 7 8 9 7 5 5 6 5 5 6 6 7 8 7 5 3 4 5 7 8 9 10 12 13 14 14 15 16 21 22 23 25 27 27 23 18
12 11 10 10 10 8 7 7 7 7 7 7 5 3 5 8 9 7 6 6 7 7 7 7 6 5 5 6 9 14 18 20 20 21 23 24 26 28 29 27 23 19 15 12
15 13 13 12 11 11 11 11 10 10 9 9 6 1 3 4 6 8 9 10 11 12 13 12 13 14 15 17 17 20 24 26 27 28 30 30 29 27 23 20 17 14 11 9

GFSNW_250_spd_183.txt.gz
Wind_Speed
122 118 126 126 132 135 133 136 137 137 138 143 150 147 137 141 143 144 143 149 147 143 144 147 149 148 147 147 149 153 145 144 135 134 135 134 134 132 123 132 134 131 135 140
127 125 129 131 136 136 134 138 140 141 147 151 157 151 150 143 147 155 156 155 150 145 144 145 138 134 130 130 133 135 131 132 125 117 116 117 115 127 133 122 126 125 135 138
133 134 136 135 137 139 143 141 145 150 149 151 156 161 158 159 155 152 149 145 142 141 128 124 119 118 115 116 116 117 115 115 113 109 105 107 110 110 113 113 113 114 112 116
139 137 137 144 141 142 149 150 150 153 155 147 149 156 154 152 148 138 127 127 124 116 110 110 109 110 106 104 103 101 106 101 98 99 94 97 96 97 101 104 101 107 99 104
137 138 138 145 139 147 155 150 150 152 153 152 149 142 143 138 132 124 123 112 108 104 103 105 98 96 96 90 90 89 91 86 91 90 89 92 93 92 89 90 95 96 91 88
137 144 143 146 143 144 149 147 144 142 140 136 135 131 124 117 110 106 102 98 94 92 94 90 84 83 83 78 79 75 78 81 84 76 82 84 82 79 83 84 85 85 85 85
131 133 136 137 137 137 137 133 133 129 126 122 120 116 109 103 98 93 92 86 79 83 78 75 73 73 69 67 69 66 67 70 74 68 76 76 70 71 76 78 78 80 79 78
123 124 124 125 122 124 123 119 116 113 109 107 106 99 93 88 84 80 77 77 69 70 70 67 63 65 62 61 65 61 61 64 67 68 71 65 57 66 69 71 72 73 74 75
111 111 112 112 110 108 106 104 100 96 94 97 90 84 78 75 72 71 72 70 64 62 63 62 59 60 62 56 58 58 56 56 60 64 67 60 58 63 66 66 63 69 69 68
100 100 98 95 94 92 92 90 85 82 79 82 76 72 68 65 64 66 66 59 61 58 58 58 55 52 55 52 52 50 50 48 49 57 58 53 54 58 60 60 62 62 62 61
84 83 83 82 80 77 76 75 70 68 68 71 67 65 62 59 58 57 59 54 56 55 55 52 48 45 48 45 46 46 45 44 43 47 47 44 53 50 54 57 55 57 55 54
68 68 68 66 65 64 65 63 59 58 59 64 61 57 52 52 52 49 50 51 50 51 50 45 41 40 39 39 39 38 38 42 44 44 42 43 49 48 49 51 53 52 52 51
56 55 56 57 57 55 53 53 51 52 52 54 52 48 46 45 44 43 44 44 43 45 42 37 36 36 36 38 39 37 37 40 40 41 40 44 46 47 48 48 50 50 48 47
48 49 48 47 46 45 44 45 44 43 41 46 42 38 35 39 38 38 38 39 41 40 36 33 33 31 30 32 31 33 37 39 41 40 42 43 41 41 41 42 44 40 37 39
41 40 39 39 38 36 36 35 35 34 34 34 33 32 31 31 31 31 33 35 35 35 33 31 32 30 28 30 35 41 39 39 35 34 34 33 34 36 36 38 39 39 37 43
32 32 32 32 30 29 28 28 28 27 28 28 27 27 26 26 25 24 26 27 28 28 28 30 30 26 28 34 38 40 29 26 27 30 28 28 33 33 33 34 32 32 37 41
25 26 25 24 23 22 22 22 21 20 21 19 19 20 20 20 21 20 20 20 20 19 20 21 19 18 26 28 32 25 18 21 24 25 21 26 29 27 25 23 26 29 27 27
20 19 19 18 17 16 16 15 15 14 14 13 14 15 15 15 15 15 17 18 17 17 18 18 19 18 23 24 19 20 15 19 18 19 21 26 27 22 18 19 26 27 24 17
14 13 12 12 12 11 12 12 12 13 13 12 12 12 12 12 12 12 13 13 13 14 14 13 14 15 17 16 15 16 16 16 16 18 18 19 19 19 19 17 18 18 20 18
7 8 10 10 10 11 11 12 12 12 12 11 12 11 10 10 10 10 11 11 10 10 10 9 7 8 10 10 11 13 12 12 13 12 12 15 17 14 13 14 17 19 19 13
8 8 8 9 9 9 10 10 9 10 10 9 10 10 10 9 7 6 7 8 8 7 7 7 7 6 6 8 9 8 8 8 8 8 8 10 13 12 9 14 22 14 7 9
6 6 5 6 6 7 7 7 6 6 7 8 8 8 8 6 4 3 3 3 3 3 4 5 5 6 8 7 5 3 3 4 5 6 7 6 4 5 7 7 6 7 9 12
4 4 4 5 5 5 4 6 5 4 5 6 7 7 5 5 5 4 4 5 5 5 5 4 5 5 5 5 4 4 3 4 6 7 6 4 3 4 5 6 8 9 10 10
3 2 3 5 6 5 4 5 5 3 4 5 6 5 3 3 6 7 4 3 1 2 5 6 6 5 4 3 5 5 6 6 5 5 5 4 5 6 8 9 10 11 12 13
3 4 5 4 4 4 6 5 4 3 4 4 4 5 6 6 6 4 3 3 5 6 8 7 8 8 8 6 3 4 7 8 7 8 9 9 9 8 10 11 12 15 16 16
2 3 3 2 3 3 4 3 2 3 3 4 5 5 7 5 4 4 4 4 6 5 7 7 9 10 10 10 9 8 7 7 8 10 11 11 11 10 11 14 18 20 22 21
3 2 3 3 3 3 2 2 4 8 7 6 5 4 5 3 3 4 2 3 4 5 6 6 9 10 9 9 10 9 8 9 9 10 13 13 15 15 18 22 23 23 22 20

GFSNW_250_spd_186.txt.gz
Wind_Speed
122 124 123 112 118 115 111 121 118 111 113 117 120 124 125 128 129 133 133 133 136 139 137 138 139 137 140 143 144 148 150 154 154 136 130 133 126 128 126 134 125 123 126 122
120 123 118 121 121 118 122 131 117 128 122 130 139 123 130 124 131 132 135 142 134 139 146 147 145 146 142 149 150 147 145 143 127 112 111 112 111 109 111 111 111 112 113 118
121 119 115 108 119 117 127 131 126 127 129 125 131 133 128 137 136 139 135 145 151 145 147 150 151 151 145 141 139 133 129 118 113 108 98 103 104 104 102 106 105 105 106 104
116 120 124 127 120 124 125 127 132 133 136 132 135 140 131 138 145 147 149 149 151 150 146 143 142 137 130 126 119 112 110 103 99 99 91 89 95 97 99 96 90 97 94 96
133 126 126 129 133 129 129 134 131 136 142 130 138 146 141 140 143 150 152 150 146 142 138 136 127 125 117 107 107 102 100 90 88 82 83 84 84 83 79 85 88 90 90 88
129 139 139 136 136 135 141 140 139 143 140 137 142 145 145 144 142 141 143 139 139 141 132 126 111 105 102 98 90 90 85 80 77 68 77 77 70 67 76 74 77 80 80 80
127 135 142 147 145 144 147 142 145 145 146 142 146 148 142 136 137 138 135 129 123 120 116 106 98 95 90 87 80 79 75 73 71 64 71 65 57 63 68 72 71 76 74 73
121 126 131 136 138 143 143 144 143 141 142 139 139 137 135 130 126 122 119 113 106 102 97 92 89 86 78 75 70 68 65 65 63 59 63 53 47 64 66 67 67 67 69 70
117 122 126 128 130 131 129 130 128 124 127 129 127 124 120 116 112 108 104 97 95 90 87 83 78 75 67 63 62 60 56 56 54 54 52 43 53 57 61 65 56 65 66 64
101 109 114 116 117 116 116 114 113 114 115 116 113 105 101 97 94 92 90 85 83 79 76 71 68 62 59 56 54 56 53 50 48 47 43 40 51 56 62 55 56 57 56 58
89 92 95 96 97 97 98 98 97 96 97 98 94 90 89 85 82 78 76 74 73 65 64 63 61 53 52 49 48 47 46 46 44 43 38 38 51 51 56 54 48 48 52 53
82 83 84 85 84 84 84 83 83 84 85 86 81 78 73 71 67 65 64 64 60 57 57 56 51 47 42 43 46 41 42 40 41 39 36 39 45 45 50 49 47 47 50 49
69 70 71 71 71 72 71 71 71 70 70 71 69 60 58 59 57 54 55 54 50 51 49 48 42 39 36 38 40 39 40 42 41 40 42 42 44 45 48 48 46 47 49 46
57 57 58 59 59 60 59 57 55 54 57 59 55 52 50 49 49 48 48 47 44 44 43 39 36 34 32 36 42 42 44 45 42 40 43 43 43 43 43 45 46 44 42 41
46 47 48 47 47 46 47 47 47 46 47 46 44 43 41 42 43 44 44 42 41 40 37 34 32 33 35 37 42 44 41 38 37 38 37 39 40 38 38 39 40 40 39 39
37 37 38 38 38 39 39 38 38 38 39 39 38 37 37 37 37 37 37 37 36 35 32 29 27 24 29 33 37 39 23 30 31 34 33 35 36 36 35 35 35 36 36 37
30 31 32 32 31 31 31 32 32 33 33 33 32 32 32 31 31 31 30 29 29 29 28 27 26 26 30 29 30 20 14 24 24 27 26 31 31 30 31 31 26 26 30 33
25 25 25 25 25 26 28 27 28 27 26 26 25 26 26 25 24 23 22 21 22 22 22 22 20 21 24 22 20 16 19 24 22 22 24 26 25 25 23 21 22 24 28 24
19 20 22 21 22 22 22 22 22 22 21 21 21 21 20 21 19 19 18 17 17 18 18 17 17 17 17 16 15 14 14 17 18 20 21 20 19 19 20 22 22 22 21 21
19 18 18 18 18 19 19 19 18 18 18 19 19 18 17 17 16 16 15 14 13 13 13 14 14 15 14 12 12 12 13 14 16 17 17 19 18 18 18 19 19 19 18 19
15 15 15 15 15 16 16 16 16 15 15 15 15 15 15 14 14 13 13 12 12 12 11 12 14 15 13 11 10 9 10 12 13 13 13 14 15 15 14 15 17 14 8 13
10 11 10 11 10 10 10 10 11 13 11 10 9 8 10 11 9 12 12 11 10 11 11 11 12 12 11 10 10 11 11 10 10 11 11 11 9 7 8 10 8 5 7 10
7 7 7 7 6 6 7 7 7 9 8 7 6 6 7 9 9 9 10 10 8 9 11 11 10 10 9 8 9 10 11 10 8 8 8 8 10 9 7 7 9 12 13 12
4 4 4 5 6 7 6 7 8 10 9 7 5 5 6 8 7 7 5 6 6 7 7 7 8 9 9 10 9 9 8 7 8 7 8 8 8 8 7 8 9 9 10 11
4 4 5 5 5 5 5 5 6 6 5 5 6 6 7 6 3 4 7 5 4 5 6 7 8 10 10 10 10 10 9 9 9 9 9 9 9 9 9 10 11 12 13 14
3 3 3 4 4 5 6 6 6 4 4 6 7 6 6 5 3 4 4 4 4 5 6 7 7 10 12 12 12 11 10 10 10 10 10 11 12 12 12 13 15 16 16 18
4 4 5 4 4 5 6 6 5 3 4 5 7 7 6 5 6 5 3 3 2 4 5 6 8 9 11 12 12 11 10 10 10 10 11 12 13 14 14 15 18 20 22 20

GFSNW_250_spd_189.txt.gz
Wind_Speed
123 119 115 120 121 116 105 108 107 99 110 103 112 120 114 110 108 117 121 117 121 130 123 117 111 118 125 129 132 129 129 134 131 132 129 131 134 138 147 142 138 139 141 129
122 114 113 111 119 118 115 118 118 107 107 116 120 126 115 120 122 120 130 129 125 122 129 129 124 128 129 133 140 138 136 139 144 141 142 145 152 146 132 124 122 116 117 112
121 120 119 110 103 102 111 109 106 107 114 110 118 119 125 129 131 122 131 132 132 136 140 142 138 132 134 138 132 139 150 151 142 145 145 143 129 120 117 105 105 105 105 102
118 118 116 120 120 121 123 123 120 126 125 131 132 132 132 133 133 123 130 134 124 129 136 144 141 136 137 141 141 139 148 150 144 135 128 124 111 102 101 97 93 99 97 97
120 120 123 121 120 130 129 126 118 126 129 129 128 128 128 126 131 131 130 134 140 138 134 141 135 143 138 140 146 141 140 135 128 114 113 108 95 87 84 83 82 87 87 86
115 117 119 117 123 127 127 132 135 138 133 132 127 127 131 136 145 137 136 141 144 140 141 144 146 143 140 140 137 134 122 115 107 95 100 92 76 75 78 77 71 73 77 74
109 113 117 117 122 125 127 129 134 135 136 138 143 142 143 141 142 141 143 145 145 147 144 141 142 141 140 131 122 110 105 100 95 85 83 70 65 71 73 69 64 64 64 67
106 108 107 113 117 119 125 128 135 140 143 147 147 141 147 148 150 152 153 155 153 150 144 141 146 134 119 109 104 98 90 84 80 76 70 58 57 66 68 64 60 54 63 63
92 93 99 105 111 115 124 129 132 137 138 142 143 141 138 139 141 142 141 144 140 137 131 121 112 106 102 94 89 82 76 72 69 68 59 50 56 62 62 63 47 61 60 57
83 89 97 103 110 116 116 117 123 127 130 133 136 136 134 134 131 129 126 124 119 114 108 102 98 91 87 80 75 71 69 66 59 57 52 46 56 58 59 57 50 64 54 53
76 80 89 95 104 108 112 117 123 126 128 130 130 128 125 123 118 112 107 103 101 96 89 84 83 78 76 72 66 61 62 59 56 51 48 45 57 52 52 56 54 54 52 50
71 76 78 80 84 91 96 100 103 106 108 113 111 110 107 101 96 92 88 85 81 77 74 72 72 70 64 62 57 56 57 55 52 50 48 50 50 49 50 55 48 53 47 48
65 65 67 70 74 75 77 79 82 85 87 89 88 83 79 77 75 73 72 72 69 69 67 63 59 58 55 52 51 52 55 53 48 46 49 46 47 46 47 50 50 49 49 45
57 58 60 63 64 65 68 69 71 72 71 72 69 65 63 65 65 64 63 62 59 58 54 52 51 49 46 46 47 50 55 48 42 44 46 45 46 44 43 46 48 51 48 45
50 52 54 55 57 58 59 59 60 59 60 62 60 58 57 56 55 54 53 51 48 46 44 43 42 40 40 45 47 51 45 38 36 39 40 42 42 38 41 41 41 39 40 39
46 47 48 49 49 49 50 51 51 51 53 53 50 48 47 47 46 45 44 42 41 40 38 37 36 37 39 42 42 43 31 23 31 35 34 34 35 35 35 36 36 35 35 37
39 39 39 40 41 42 42 43 42 42 42 42 41 39 37 38 37 37 36 35 35 34 32 32 33 34 35 35 37 30 24 30 36 36 34 34 35 32 32 34 34 33 34 34
31 31 31 31 32 33 33 33 33 33 34 33 33 32 31 30 29 29 29 29 28 28 27 26 26 28 27 26 26 23 23 31 31 29 27 27 26 26 25 25 26 28 28 28
24 25 25 26 27 26 26 26 26 27 27 27 27 26 26 26 25 24 24 24 23 23 22 22 22 22 22 21 22 22 22 24 26 24 24 23 21 21 23 24 23 25 25 25
19 18 19 19 20 19 20 21 23 23 24 24 23 23 23 23 21 20 19 20 20 21 19 18 18 18 18 19 21 21 21 22 23 22 21 20 21 19 20 20 20 19 19 19
13 12 13 15 15 16 17 19 18 19 20 19 19 19 18 17 18 18 17 17 18 17 17 17 16 16 16 17 18 21 20 20 19 19 18 18 18 17 17 17 17 18 18 17
9 10 11 12 12 12 13 14 15 14 14 15 15 15 14 13 14 16 15 13 14 15 15 15 14 14 14 15 15 16 16 15 16 16 15 16 15 14 15 16 15 15 15 14
8 8 9 9 9 8 8 8 8 7 7 8 11 11 10 10 10 12 11 12 13 13 12 11 13 13 14 15 15 14 13 13 14 14 13 12 13 14 14 13 12 12 12 11
6 6 6 4 5 6 7 7 6 6 6 5 5 6 6 6 6 9 8 10 11 11 10 10 10 11 12 14 14 14 14 13 13 13 11 11 13 14 13 11 8 7 8 9
3 3 4 5 6 6 7 8 7 6 6 5 4 3 2 3 4 6 8 9 8 9 7 6 7 8 11 13 15 15 15 13 12 11 11 12 13 13 11 10 9 10 12 13
3 3 4 4 3 4 5 5 6 7 8 8 5 3 4 4 6 9 8 8 7 9 8 6 6 7 9 11 13 14 15 14 12 11 10 12 12 11 10 10 12 13 12 12
2 2 2 2 1 3 3 2 4 5 6 5 4 4 4 6 7 8 8 10 9 9 8 6 7 8 9 10 11 12 13 13 12 11 10 11 12 11 12 13 13 14 14 17